Time,TemperatureF,DewpointF,PressureIn,WindDirection,WindDirectionDegrees,WindSpeedMPH,WindSpeedGustMPH,Humidity,HourlyPrecipIn,Conditions,Clouds,dailyrainin,SoftwareType,DateUTC
2013-04-02 00:02:00,49.0,46.0,30.15,SE,130,0.0,-999.0,91,-99.99,,,-99.99,,2013-04-02 07:02:00,
2013-04-02 00:11:00,49.0,46.0,30.15,SE,130,0.0,-999.0,91,-99.99,,,-99.99,,2013-04-02 07:11:00,
2013-04-02 00:21:00,49.0,46.0,30.15,SE,130,0.0,-999.0,91,-99.99,,,-99.99,,2013-04-02 07:21:00,
2013-04-02 00:32:00,48.0,45.0,30.16,SE,130,0.0,-999.0,90,-99.99,,,-99.99,,2013-04-02 07:32:00,
2013-04-02 00:42:00,48.0,45.0,30.16,SE,130,0.0,-999.0,90,-99.99,,,-99.99,,2013-04-02 07:42:00,
2013-04-02 00:52:00,48.0,45.0,30.16,SE,130,0.0,-999.0,91,-99.99,,,-99.99,,2013-04-02 07:52:00,
2013-04-02 01:02:00,47.0,45.0,30.16,SE,130,0.0,-999.0,91,-99.99,,,-99.99,,2013-04-02 08:02:00,
2013-04-02 01:12:00,47.0,45.0,30.16,SE,130,0.0,-999.0,91,-99.99,,,-99.99,,2013-04-02 08:12:00,
2013-04-02 01:22:00,47.0,45.0,30.17,SE,130,0.0,-999.0,92,-99.99,,,-99.99,,2013-04-02 08:22:00,
2013-04-02 01:32:00,46.0,44.0,30.17,SE,130,0.0,-999.0,92,-99.99,,,-99.99,,2013-04-02 08:32:00,
2013-04-02 01:42:00,46.0,44.0,30.17,SE,130,0.0,-999.0,92,-99.99,,,-99.99,,2013-04-02 08:42:00,
2013-04-02 01:52:00,46.0,44.0,30.17,SE,130,0.0,-999.0,92,-99.99,,,-99.99,,2013-04-02 08:52:00,
2013-04-02 02:01:00,46.0,44.0,30.17,SE,130,0.0,-999.0,92,-99.99,,,-99.99,,2013-04-02 09:01:00,
2013-04-02 02:12:00,46.0,44.0,30.17,SE,130,0.0,-999.0,92,-99.99,,,-99.99,,2013-04-02 09:12:00,
2013-04-02 02:22:00,46.0,44.0,30.18,SE,130,0.0,-999.0,93,-99.99,,,-99.99,,2013-04-02 09:22:00,
2013-04-02 02:32:00,45.0,43.0,30.18,SE,130,0.0,-999.0,93,-99.99,,,-99.99,,2013-04-02 09:32:00,
2013-04-02 02:42:00,45.0,43.0,30.18,SE,130,0.0,-999.0,93,-99.99,,,-99.99,,2013-04-02 09:42:00,
2013-04-02 02:52:00,45.0,43.0,30.17,SE,130,0.0,-999.0,93,-99.99,,,-99.99,,2013-04-02 09:52:00,
2013-04-02 03:03:00,45.0,43.0,30.17,SE,130,0.0,-999.0,93,-99.99,,,-99.99,,2013-04-02 10:03:00,
2013-04-02 03:12:00,45.0,43.0,30.17,SE,130,0.0,-999.0,93,-99.99,,,-99.99,,2013-04-02 10:12:00,
2013-04-02 03:23:00,45.0,43.0,30.17,SE,130,0.0,-999.0,93,-99.99,,,-99.99,,2013-04-02 10:23:00,
2013-04-02 03:33:00,44.0,42.0,30.16,SE,130,0.0,-999.0,93,-99.99,,,-99.99,,2013-04-02 10:33:00,
2013-04-02 03:42:00,44.0,42.0,30.16,SE,130,0.0,-999.0,93,-99.99,,,-99.99,,2013-04-02 10:42:00,
2013-04-02 03:52:00,44.0,42.0,30.16,SE,130,0.0,-999.0,94,-99.99,,,-99.99,,2013-04-02 10:52:00,
2013-04-02 04:02:00,44.0,42.0,30.16,SE,130,0.0,-999.0,94,-99.99,,,-99.99,,2013-04-02 11:02:00,
2013-04-02 04:11:00,44.0,42.0,30.16,SE,130,0.0,-999.0,94,-99.99,,,-99.99,,2013-04-02 11:11:00,
2013-04-02 04:22:00,44.0,42.0,30.15,SE,130,0.0,-999.0,94,-99.99,,,-99.99,,2013-04-02 11:22:00,
2013-04-02 04:32:00,44.0,42.0,30.15,SE,130,0.0,-999.0,94,-99.99,,,-99.99,,2013-04-02 11:32:00,
2013-04-02 04:42:00,44.0,42.0,30.15,SE,130,0.0,-999.0,94,-99.99,,,-99.99,,2013-04-02 11:42:00,
2013-04-02 04:52:00,44.0,42.0,30.16,SE,130,0.0,-999.0,94,-99.99,,,-99.99,,2013-04-02 11:52:00,
2013-04-02 05:02:00,44.0,42.0,30.16,SE,130,0.0,-999.0,94,-99.99,,,-99.99,,2013-04-02 12:02:00,
2013-04-02 05:11:00,44.0,42.0,30.16,SE,130,0.0,-999.0,94,-99.99,,,-99.99,,2013-04-02 12:11:00,
2013-04-02 05:22:00,45.0,44.0,30.16,SE,130,0.0,-999.0,95,-99.99,,,-99.99,,2013-04-02 12:22:00,
2013-04-02 05:32:00,45.0,44.0,30.16,SE,130,0.0,-999.0,95,-99.99,,,-99.99,,2013-04-02 12:32:00,
2013-04-02 05:41:00,45.0,44.0,30.16,SE,130,0.0,-999.0,95,-99.99,,,-99.99,,2013-04-02 12:41:00,
2013-04-02 05:52:00,46.0,45.0,30.16,SE,130,0.0,-999.0,95,-99.99,,,-99.99,,2013-04-02 12:52:00,
2013-04-02 06:01:00,46.0,45.0,30.16,SE,130,0.0,-999.0,95,-99.99,,,-99.99,,2013-04-02 13:01:00,
2013-04-02 06:12:00,46.0,45.0,30.16,SE,130,0.0,-999.0,95,-99.99,,,-99.99,,2013-04-02 13:12:00,
2013-04-02 06:22:00,46.0,45.0,30.16,SE,130,0.0,-999.0,95,-99.99,,,-99.99,,2013-04-02 13:22:00,
2013-04-02 06:32:00,46.0,45.0,30.16,SE,130,0.0,-999.0,95,-99.99,,,-99.99,,2013-04-02 13:32:00,
2013-04-02 06:42:00,46.0,45.0,30.16,SE,130,0.0,-999.0,95,-99.99,,,-99.99,,2013-04-02 13:42:00,
2013-04-02 06:52:00,46.0,45.0,30.16,SE,130,0.0,-999.0,95,-99.99,,,-99.99,,2013-04-02 13:52:00,
2013-04-02 07:02:00,46.0,45.0,30.16,SE,130,0.0,-999.0,95,-99.99,,,-99.99,,2013-04-02 14:02:00,
2013-04-02 07:11:00,46.0,45.0,30.16,SE,130,0.0,-999.0,95,-99.99,,,-99.99,,2013-04-02 14:11:00,
2013-04-02 07:22:00,46.0,45.0,30.16,SE,130,0.0,-999.0,95,-99.99,,,-99.99,,2013-04-02 14:22:00,
2013-04-02 07:32:00,46.0,45.0,30.18,SE,130,0.0,-999.0,95,-99.99,,,-99.99,,2013-04-02 14:32:00,
2013-04-02 07:42:00,46.0,45.0,30.18,SE,130,0.0,-999.0,95,-99.99,,,-99.99,,2013-04-02 14:42:00,
2013-04-02 07:52:00,46.0,45.0,30.18,SE,130,0.0,-999.0,95,-99.99,,,-99.99,,2013-04-02 14:52:00,
2013-04-02 08:02:00,46.0,45.0,30.18,SE,130,0.0,-999.0,95,-99.99,,,-99.99,,2013-04-02 15:02:00,
2013-04-02 08:11:00,46.0,45.0,30.18,SE,130,0.0,-999.0,95,-99.99,,,-99.99,,2013-04-02 15:11:00,
2013-04-02 08:22:00,47.0,46.0,30.18,SE,130,0.0,-999.0,95,-99.99,,,-99.99,,2013-04-02 15:22:00,
2013-04-02 08:33:00,47.0,46.0,30.18,SE,130,0.0,-999.0,95,-99.99,,,-99.99,,2013-04-02 15:33:00,
2013-04-02 08:42:00,47.0,46.0,30.18,SE,130,0.0,-999.0,95,-99.99,,,-99.99,,2013-04-02 15:42:00,
2013-04-02 08:54:00,47.0,46.0,30.19,SE,130,0.0,-999.0,95,-99.99,,,-99.99,,2013-04-02 15:54:00,
2013-04-02 09:03:00,47.0,46.0,30.18,SE,130,0.0,-999.0,95,-99.99,,,-99.99,,2013-04-02 16:03:00,
2013-04-02 09:13:00,47.0,46.0,30.18,SE,130,0.0,-999.0,95,-99.99,,,-99.99,,2013-04-02 16:13:00,
2013-04-02 09:23:00,48.0,47.0,30.18,SE,130,0.0,-999.0,95,-99.99,,,-99.99,,2013-04-02 16:23:00,
2013-04-02 09:34:00,48.0,47.0,30.19,SE,130,0.0,-999.0,95,-99.99,,,-99.99,,2013-04-02 16:34:00,
2013-04-02 09:42:00,48.0,47.0,30.19,SE,130,0.0,-999.0,95,-99.99,,,-99.99,,2013-04-02 16:42:00,
2013-04-02 09:52:00,48.0,47.0,30.18,SE,130,0.0,-999.0,95,-99.99,,,-99.99,,2013-04-02 16:52:00,
2013-04-02 10:03:00,48.0,47.0,30.18,SE,130,0.0,-999.0,95,-99.99,,,-99.99,,2013-04-02 17:03:00,
2013-04-02 10:12:00,48.0,47.0,30.18,SE,130,0.0,-999.0,95,-99.99,,,-99.99,,2013-04-02 17:12:00,
2013-04-02 10:23:00,49.0,48.0,30.18,SE,130,0.0,-999.0,95,-99.99,,,-99.99,,2013-04-02 17:23:00,
2013-04-02 10:33:00,49.0,48.0,30.19,SE,127,0.0,-999.0,95,-99.99,,,-99.99,,2013-04-02 17:33:00,
2013-04-02 10:42:00,49.0,48.0,30.19,SE,127,0.0,-999.0,95,-99.99,,,-99.99,,2013-04-02 17:42:00,
2013-04-02 10:52:00,50.0,49.0,30.19,SE,127,0.0,-999.0,95,-99.99,,,-99.99,,2013-04-02 17:52:00,
2013-04-02 11:03:00,50.0,49.0,30.19,ESE,121,0.0,-999.0,95,-99.99,,,-99.99,,2013-04-02 18:03:00,
2013-04-02 11:12:00,50.0,49.0,30.19,ESE,121,0.0,-999.0,95,-99.99,,,-99.99,,2013-04-02 18:12:00,
2013-04-02 11:22:00,50.0,49.0,30.19,ESE,121,0.0,-999.0,95,-99.99,,,-99.99,,2013-04-02 18:22:00,
2013-04-02 11:33:00,52.0,49.0,30.19,East,94,1.0,-999.0,90,-99.99,,,-99.99,,2013-04-02 18:33:00,
2013-04-02 11:42:00,52.0,49.0,30.19,East,94,1.0,-999.0,90,-99.99,,,-99.99,,2013-04-02 18:42:00,
2013-04-02 11:55:00,54.0,51.0,30.20,SE,134,1.0,-999.0,89,-99.99,,,-99.99,,2013-04-02 18:55:00,
2013-04-02 12:02:00,55.0,51.0,30.19,SE,135,0.0,-999.0,86,-99.99,,,-99.99,,2013-04-02 19:02:00,
2013-04-02 12:12:00,55.0,51.0,30.19,SE,135,0.0,-999.0,86,-99.99,,,-99.99,,2013-04-02 19:12:00,
2013-04-02 12:22:00,56.0,52.0,30.19,ESE,116,1.0,-999.0,85,-99.99,,,-99.99,,2013-04-02 19:22:00,
2013-04-02 12:33:00,57.0,52.0,30.19,SSE,148,2.0,-999.0,84,-99.99,,,-99.99,,2013-04-02 19:33:00,
2013-04-02 12:43:00,57.0,52.0,30.19,SSE,148,2.0,-999.0,84,-99.99,,,-99.99,,2013-04-02 19:43:00,
2013-04-02 12:53:00,58.0,53.0,30.17,WSW,240,1.0,-999.0,84,-99.99,,,-99.99,,2013-04-02 19:53:00,
2013-04-02 13:03:00,59.0,54.0,30.17,ESE,122,2.0,-999.0,82,-99.99,,,-99.99,,2013-04-02 20:03:00,
2013-04-02 13:11:00,59.0,54.0,30.17,ESE,122,2.0,-999.0,82,-99.99,,,-99.99,,2013-04-02 20:11:00,
2013-04-02 13:21:00,60.0,54.0,30.16,ESE,123,3.0,-999.0,80,-99.99,,,-99.99,,2013-04-02 20:21:00,
2013-04-02 13:32:00,61.0,54.0,30.16,SSE,162,2.0,-999.0,79,-99.99,,,-99.99,,2013-04-02 20:32:00,
2013-04-02 13:42:00,61.0,54.0,30.16,SSE,162,2.0,-999.0,79,-99.99,,,-99.99,,2013-04-02 20:42:00,
2013-04-02 13:52:00,61.0,54.0,30.16,SSE,162,2.0,-999.0,79,-99.99,,,-99.99,,2013-04-02 20:52:00,
2013-04-02 14:03:00,61.0,54.0,30.16,SE,142,2.0,-999.0,79,-99.99,,,-99.99,,2013-04-02 21:03:00,
2013-04-02 14:12:00,61.0,54.0,30.16,SE,142,2.0,-999.0,79,-99.99,,,-99.99,,2013-04-02 21:12:00,
2013-04-02 14:22:00,62.0,55.0,30.14,SE,137,3.0,-999.0,77,-99.99,,,-99.99,,2013-04-02 21:22:00,
2013-04-02 14:33:00,63.0,55.0,30.13,SE,142,2.0,-999.0,75,-99.99,,,-99.99,,2013-04-02 21:33:00,
2013-04-02 14:42:00,63.0,55.0,30.13,SE,142,2.0,-999.0,75,-99.99,,,-99.99,,2013-04-02 21:42:00,
2013-04-02 14:54:00,63.0,55.0,30.13,SE,141,2.0,-999.0,74,-99.99,,,-99.99,,2013-04-02 21:54:00,
2013-04-02 15:03:00,64.0,55.0,30.13,East,84,3.0,-999.0,73,-99.99,,,-99.99,,2013-04-02 22:03:00,
2013-04-02 15:23:00,66.0,57.0,30.13,SSE,150,3.0,-999.0,72,-99.99,,,-99.99,,2013-04-02 22:23:00,
2013-04-02 15:33:00,66.0,56.0,30.13,ESE,122,3.0,-999.0,69,-99.99,,,-99.99,,2013-04-02 22:33:00,
2013-04-02 15:52:00,65.0,55.0,30.12,SSW,197,3.0,-999.0,70,-99.99,,,-99.99,,2013-04-02 22:52:00,
2013-04-02 16:02:00,66.0,56.0,30.12,SW,225,3.0,-999.0,69,-99.99,,,-99.99,,2013-04-02 23:02:00,
2013-04-02 16:12:00,66.0,56.0,30.12,SW,225,3.0,-999.0,69,-99.99,,,-99.99,,2013-04-02 23:12:00,
2013-04-02 16:22:00,65.0,55.0,30.11,ESE,120,4.0,-999.0,69,-99.99,,,-99.99,,2013-04-02 23:22:00,
2013-04-02 16:33:00,65.0,55.0,30.11,ESE,120,4.0,-999.0,69,-99.99,,,-99.99,,2013-04-02 23:33:00,
2013-04-02 16:42:00,65.0,55.0,30.11,ESE,120,4.0,-999.0,69,-99.99,,,-99.99,,2013-04-02 23:42:00,
2013-04-02 16:52:00,63.0,54.0,30.10,SE,143,4.0,-999.0,72,-99.99,,,-99.99,,2013-04-02 23:52:00,
2013-04-02 17:03:00,63.0,54.0,30.10,SE,134,4.0,-999.0,72,-99.99,,,-99.99,,2013-04-03 00:03:00,
2013-04-02 17:12:00,63.0,54.0,30.10,SE,134,4.0,-999.0,72,-99.99,,,-99.99,,2013-04-03 00:12:00,
2013-04-02 17:22:00,62.0,53.0,30.10,SE,144,4.0,-999.0,73,-99.99,,,-99.99,,2013-04-03 00:22:00,
2013-04-02 17:32:00,61.0,53.0,30.10,SE,138,5.0,-999.0,76,-99.99,,,-99.99,,2013-04-03 00:32:00,
2013-04-02 17:44:00,61.0,53.0,30.10,SE,138,5.0,-999.0,76,-99.99,,,-99.99,,2013-04-03 00:44:00,
2013-04-02 17:53:00,62.0,54.0,30.10,SE,136,3.0,-999.0,74,-99.99,,,-99.99,,2013-04-03 00:53:00,
2013-04-02 18:02:00,61.0,53.0,30.09,SE,142,5.0,-999.0,74,-99.99,,,-99.99,,2013-04-03 01:02:00,
2013-04-02 18:12:00,61.0,53.0,30.09,SE,142,5.0,-999.0,74,-99.99,,,-99.99,,2013-04-03 01:12:00,
2013-04-02 18:21:00,60.0,52.0,30.10,SSE,150,4.0,-999.0,75,-99.99,,,-99.99,,2013-04-03 01:21:00,
2013-04-02 18:33:00,59.0,51.0,30.09,SE,124,5.0,-999.0,76,-99.99,,,-99.99,,2013-04-03 01:33:00,
2013-04-02 18:42:00,59.0,51.0,30.09,SE,124,5.0,-999.0,76,-99.99,,,-99.99,,2013-04-03 01:42:00,
2013-04-02 18:52:00,57.0,50.0,30.09,SSE,154,4.0,-999.0,78,-99.99,,,-99.99,,2013-04-03 01:52:00,
2013-04-02 19:03:00,56.0,50.0,30.09,SE,146,4.0,-999.0,81,-99.99,,,-99.99,,2013-04-03 02:03:00,
2013-04-02 19:12:00,56.0,50.0,30.09,SE,146,4.0,-999.0,81,-99.99,,,-99.99,,2013-04-03 02:12:00,
2013-04-02 19:22:00,54.0,49.0,30.10,SE,138,5.0,-999.0,83,-99.99,,,-99.99,,2013-04-03 02:22:00,
2013-04-02 19:33:00,53.0,49.0,30.10,SE,134,4.0,-999.0,85,-99.99,,,-99.99,,2013-04-03 02:33:00,
2013-04-02 19:42:00,53.0,49.0,30.10,SE,134,4.0,-999.0,85,-99.99,,,-99.99,,2013-04-03 02:42:00,
2013-04-02 20:03:00,51.0,48.0,30.10,ESE,121,4.0,-999.0,88,-99.99,,,-99.99,,2013-04-03 03:03:00,
2013-04-02 20:13:00,51.0,48.0,30.10,ESE,121,4.0,-999.0,88,-99.99,,,-99.99,,2013-04-03 03:13:00,
2013-04-02 20:22:00,50.0,47.0,30.11,SSE,152,3.0,-999.0,89,-99.99,,,-99.99,,2013-04-03 03:22:00,
2013-04-02 20:35:00,50.0,47.0,30.11,SE,140,3.0,-999.0,90,-99.99,,,-99.99,,2013-04-03 03:35:00,
2013-04-02 20:43:00,50.0,47.0,30.11,SE,140,3.0,-999.0,90,-99.99,,,-99.99,,2013-04-03 03:43:00,
2013-04-02 20:53:00,49.0,46.0,30.11,SE,140,4.0,-999.0,91,-99.99,,,-99.99,,2013-04-03 03:53:00,
2013-04-02 21:03:00,49.0,46.0,30.12,SE,127,2.0,-999.0,91,-99.99,,,-99.99,,2013-04-03 04:03:00,
2013-04-02 21:12:00,49.0,46.0,30.12,SE,127,2.0,-999.0,91,-99.99,,,-99.99,,2013-04-03 04:12:00,
2013-04-02 21:23:00,49.0,47.0,30.13,SE,133,4.0,-999.0,92,-99.99,,,-99.99,,2013-04-03 04:23:00,
2013-04-02 21:32:00,49.0,47.0,30.14,SE,132,2.0,-999.0,92,-99.99,,,-99.99,,2013-04-03 04:32:00,
2013-04-02 21:42:00,49.0,47.0,30.14,SE,132,2.0,-999.0,92,-99.99,,,-99.99,,2013-04-03 04:42:00,
2013-04-02 21:53:00,49.0,47.0,30.15,SE,130,3.0,-999.0,92,-99.99,,,-99.99,,2013-04-03 04:53:00,
2013-04-02 22:02:00,48.0,46.0,30.16,SSE,148,3.0,-999.0,92,-99.99,,,-99.99,,2013-04-03 05:02:00,
2013-04-02 22:12:00,48.0,46.0,30.16,SSE,148,3.0,-999.0,92,-99.99,,,-99.99,,2013-04-03 05:12:00,
2013-04-02 22:22:00,49.0,47.0,30.16,SE,138,3.0,-999.0,92,-99.99,,,-99.99,,2013-04-03 05:22:00,
2013-04-02 22:32:00,49.0,47.0,30.15,SSE,153,2.0,-999.0,92,-99.99,,,-99.99,,2013-04-03 05:32:00,
2013-04-02 22:42:00,49.0,47.0,30.15,SSE,153,2.0,-999.0,92,-99.99,,,-99.99,,2013-04-03 05:42:00,
2013-04-02 22:52:00,48.0,46.0,30.15,SE,139,2.0,-999.0,92,-99.99,,,-99.99,,2013-04-03 05:52:00,
2013-04-02 23:02:00,49.0,47.0,30.15,SE,128,1.0,-999.0,92,-99.99,,,-99.99,,2013-04-03 06:02:00,
2013-04-02 23:12:00,49.0,47.0,30.15,SE,128,1.0,-999.0,92,-99.99,,,-99.99,,2013-04-03 06:12:00,
2013-04-02 23:22:00,48.0,46.0,30.15,SE,139,2.0,-999.0,92,-99.99,,,-99.99,,2013-04-03 06:22:00,
2013-04-02 23:32:00,48.0,46.0,30.15,SE,130,1.0,-999.0,92,-99.99,,,-99.99,,2013-04-03 06:32:00,
2013-04-02 23:42:00,48.0,46.0,30.15,SE,130,1.0,-999.0,92,-99.99,,,-99.99,,2013-04-03 06:42:00,
2013-04-02 23:52:00,48.0,46.0,30.14,SE,133,1.0,-999.0,92,-99.99,,,-99.99,,2013-04-03 06:52:00,